Regional Weather Roundup
Issued by NWS Goodland, KS

Home | Current Version | Previous Version | Text Only | Print | Product List | Glossary On
Versions: 1 2 3 4 5 6 7 8 9 10 11 12 13 14 15 16 17 18 19 20 21 22 23 24 25 26 27 28 29 30 31 32 33 34 35 36 37 38 39 40 41 42 43 44 45 46 47 48 49 50
000
ASUS43 KGLD 240508
RWRGLD

GOODLAND FORECAST AREA HOURLY WEATHER ROUNDUP
NATIONAL WEATHER SERVICE GOODLAND KS
1100 PM MDT SAT MAY 23 2015

...OFFICIAL OBSERVATIONS...

CITY           SKY/WX    TMP DP  RH WIND       PRES   REMARKS
GOODLAND KS    CLOUDY    54  52  93 S8        29.92R
HILL CITY KS   CLOUDY    58  57  97 E8        29.96R FOG
IMPERIAL NEB   CLOUDY    55  53  93 SE20      29.92R
MCCOOK NEB     CLOUDY    57  56  96 E14       29.92F
AKRON CO       MOCLDY    48  47  96 NE7       29.94R
BURLINGTON CO  CLOUDY    51  49  92 SE9       29.92R
LIMON CO       CLOUDY    47  45  93 N10       29.95R
$$

...UNOFFICIAL OBSERVATIONS...

CITY           SKY/WX    TMP DP  RH WIND       PRES   REMARKS
GOVE KS          N/A     58  32  37 MISG        N/A
LENORA KS        N/A     56  32  40 MISG        N/A
SHARON SPRINGS   N/A     57  55  95 MISG        N/A
TRENTON NEB      N/A     56  32  40 E17         N/A
KIT CARSON CO    N/A     52  49  90 MISG        N/A
$$


USA.gov is the U.S. government's official web portal to all federal, state and local government web resources and services.